When you browse on this site, cookies collect data to enhance your experience and personalize the content and advertising you see.
Visit our Privacy Policy to learn more. By continuing to use the site, you agree to this use of cookies and data.
  • In Netherlands
  • List of Countries
  • For 7 days
  • Water Temperature
  • Satellite Maps
  • Weather Map
  • Weather Widgets
  • user-avatar
    Login

    Hourly Weather Oktyabrskoe

    Today, 21 July, Sunday

    Time Temperature Precipitation Wind Pressure Humidity
    00:00 +20°C° 0 mm 1 mps 706 mmHg 87%
    01:00 +20°C° 0 mm 1 mps 706 mmHg 87%
    02:00 +20°C° 0 mm 1 mps 705 mmHg 87%
    03:00 +20°C° 0 mm 1 mps 705 mmHg 87%
    04:00 +20°C° 0 mm 1 mps 705 mmHg 86%
    05:00 +21°C° 0 mm 1 mps 705 mmHg 85%
    06:00 +22°C° 0 mm 1 mps 705 mmHg 83%
    07:00 +23°C° 0 mm 1 mps 705 mmHg 77%
    08:00 +25°C° 0 mm 1 mps 705 mmHg 70%
    09:00 +27°C° 0 mm 1 mps 705 mmHg 63%
    10:00 +28°C° 0 mm 2 mps 705 mmHg 60%
    11:00 +29°C° 0 mm 2 mps 705 mmHg 57%
    12:00 +30°C° 0 mm 2 mps 705 mmHg 55%
    13:00 +30°C° 0 mm 2 mps 705 mmHg 54%
    14:00 +31°C° 0 mm 2 mps 704 mmHg 53%
    15:00 +31°C° 0 mm 1 mps 704 mmHg 52%
    16:00 +31°C° 0 mm 1 mps 704 mmHg 56%
    17:00 +30°C° 0 mm 1 mps 704 mmHg 59%
    18:00 +29°C° 0 mm 1 mps 704 mmHg 63%
    19:00 +28°C° 0 mm 1 mps 704 mmHg 65%
    20:00 +26°C° 0 mm 1 mps 704 mmHg 67%
    21:00 +24°C° 0 mm 2 mps 704 mmHg 68%
    22:00 +24°C° 0 mm 1 mps 704 mmHg 69%
    23:00 +23°C° 0 mm 1 mps 703 mmHg 71%

    Tomorrow, 22 July, Monday

    Time Temperature Precipitation Wind Pressure Humidity
    00:00 +23°C° 0 mm 1 mps 703 mmHg 72%
    01:00 +22°C° 0 mm 1 mps 703 mmHg 74%
    02:00 +22°C° 0 mm 1 mps 703 mmHg 75%
    03:00 +21°C° 0 mm 1 mps 703 mmHg 77%
    04:00 +22°C° 0 mm 1 mps 703 mmHg 78%
    05:00 +22°C° 0 mm 1 mps 704 mmHg 79%
    06:00 +22°C° 0 mm 1 mps 704 mmHg 81%
    07:00 +23°C° 0 mm 2 mps 704 mmHg 78%
    08:00 +23°C° 0 mm 2 mps 704 mmHg 76%
    09:00 +24°C° 0 mm 2 mps 704 mmHg 74%
    10:00 +25°C° 0 mm 1 mps 704 mmHg 73%
    11:00 +26°C° 0 mm 1 mps 704 mmHg 71%
    12:00 +26°C° 0 mm 1 mps 704 mmHg 69%
    13:00 +26°C° 0 mm 1 mps 704 mmHg 71%
    14:00 +26°C° 0 mm 1 mps 704 mmHg 72%
    15:00 +26°C° 0 mm 1 mps 703 mmHg 73%
    16:00 +25°C° 0.1 mm 1 mps 703 mmHg 76%
    17:00 +24°C° 0.1 mm 1 mps 703 mmHg 79%
    18:00 +21°C° 0.1 mm 0 mps 703 mmHg 82%
    19:00 +21°C° 0.9 mm 0 mps 704 mmHg 85%
    20:00 +22°C° 0.9 mm 1 mps 704 mmHg 88%
    21:00 +21°C° 0.9 mm 1 mps 704 mmHg 91%
    22:00 +19°C° 0.5 mm 0 mps 704 mmHg 91%
    23:00 +19°C° 0.5 mm 0 mps 704 mmHg 92%

    Day after tomorrow, 23 July, Tuesday

    Time Temperature Precipitation Wind Pressure Humidity
    00:00 +19°C° 0.5 mm 0 mps 703 mmHg 92%
    01:00 +18°C° 0 mm 0 mps 703 mmHg 92%
    02:00 +18°C° 0 mm 0 mps 703 mmHg 92%
    03:00 +18°C° 0 mm 0 mps 703 mmHg 92%
    04:00 +19°C° 0 mm 0 mps 703 mmHg 91%
    05:00 +19°C° 0 mm 0 mps 703 mmHg 90%
    06:00 +19°C° 0 mm 0 mps 703 mmHg 90%
    07:00 +22°C° 0 mm 1 mps 703 mmHg 84%
    08:00 +23°C° 0 mm 1 mps 703 mmHg 79%
    09:00 +25°C° 0 mm 2 mps 702 mmHg 74%
    10:00 +25°C° 0.1 mm 1 mps 702 mmHg 73%
    11:00 +25°C° 0.1 mm 1 mps 702 mmHg 72%
    12:00 +26°C° 0.1 mm 1 mps 702 mmHg 70%
    13:00 +25°C° 0.1 mm 1 mps 702 mmHg 73%
    14:00 +25°C° 0.1 mm 1 mps 702 mmHg 76%
    15:00 +25°C° 0.1 mm 1 mps 701 mmHg 78%
    16:00 +24°C° 0.1 mm 1 mps 702 mmHg 79%
    17:00 +22°C° 0.1 mm 0 mps 702 mmHg 80%
    18:00 +22°C° 0.1 mm 0 mps 702 mmHg 81%
    19:00 +21°C° 0 mm 0 mps 702 mmHg 83%
    20:00 +22°C° 0 mm 1 mps 702 mmHg 85%
    21:00 +21°C° 0 mm 1 mps 701 mmHg 88%
    22:00 +21°C° 0 mm 1 mps 701 mmHg 88%
    23:00 +20°C° 0 mm 1 mps 701 mmHg 89%

    24 July, Wednesday

    Time Temperature Precipitation Wind Pressure Humidity
    00:00 +20°C° 0 mm 1 mps 701 mmHg 89%
    01:00 +20°C° 0 mm 1 mps 701 mmHg 89%
    02:00 +20°C° 0 mm 1 mps 701 mmHg 89%
    03:00 +20°C° 0 mm 1 mps 701 mmHg 89%
    04:00 +20°C° 0 mm 1 mps 701 mmHg 88%
    05:00 +19°C° 0 mm 0 mps 701 mmHg 87%
    06:00 +19°C° 0 mm 0 mps 701 mmHg 85%
    07:00 +23°C° 0.1 mm 1 mps 701 mmHg 79%
    08:00 +25°C° 0.1 mm 1 mps 701 mmHg 72%
    09:00 +26°C° 0.1 mm 1 mps 701 mmHg 66%
    10:00 +27°C° 0.2 mm 2 mps 701 mmHg 64%
    11:00 +28°C° 0.2 mm 2 mps 701 mmHg 61%
    12:00 +29°C° 0.2 mm 2 mps 701 mmHg 59%
    13:00 +29°C° 0.3 mm 2 mps 701 mmHg 58%
    14:00 +30°C° 0.3 mm 2 mps 701 mmHg 58%
    15:00 +30°C° 0.3 mm 2 mps 701 mmHg 57%
    16:00 +29°C° 0.4 mm 2 mps 701 mmHg 61%
    17:00 +28°C° 0.4 mm 1 mps 701 mmHg 66%
    18:00 +28°C° 0.4 mm 1 mps 701 mmHg 70%
    19:00 +26°C° 0.1 mm 1 mps 701 mmHg 74%
    20:00 +24°C° 0.1 mm 1 mps 701 mmHg 78%
    21:00 +22°C° 0.1 mm 1 mps 701 mmHg 83%
    22:00 +22°C° 0 mm 1 mps 701 mmHg 82%
    23:00 +21°C° 0 mm 1 mps 701 mmHg 82%

    25 July, Thursday

    Time Temperature Precipitation Wind Pressure Humidity
    00:00 +21°C° 0 mm 1 mps 701 mmHg 82%
    01:00 +21°C° 0.1 mm 1 mps 701 mmHg 83%
    02:00 +20°C° 0.1 mm 1 mps 701 mmHg 84%
    03:00 +20°C° 0.1 mm 1 mps 701 mmHg 85%
    04:00 +21°C° 0.1 mm 1 mps 701 mmHg 86%
    05:00 +21°C° 0.1 mm 1 mps 701 mmHg 86%
    06:00 +21°C° 0.1 mm 1 mps 701 mmHg 87%
    07:00 +23°C° 0 mm 1 mps 701 mmHg 81%
    08:00 +24°C° 0 mm 1 mps 701 mmHg 75%
    09:00 +26°C° 0 mm 1 mps 701 mmHg 69%
    10:00 +26°C° 0.1 mm 1 mps 701 mmHg 67%
    11:00 +27°C° 0.1 mm 1 mps 701 mmHg 65%
    12:00 +27°C° 0.1 mm 1 mps 701 mmHg 63%
    13:00 +27°C° 0.2 mm 1 mps 701 mmHg 64%
    14:00 +27°C° 0.2 mm 1 mps 701 mmHg 65%
    15:00 +27°C° 0.2 mm 1 mps 701 mmHg 65%
    16:00 +27°C° 0.1 mm 1 mps 701 mmHg 68%
    17:00 +27°C° 0.1 mm 1 mps 701 mmHg 70%
    18:00 +26°C° 0.1 mm 2 mps 701 mmHg 72%
    19:00 +25°C° 0.2 mm 1 mps 701 mmHg 79%
    20:00 +23°C° 0.2 mm 1 mps 701 mmHg 86%
    21:00 +22°C° 0.2 mm 1 mps 701 mmHg 92%
    22:00 +21°C° 0.4 mm 1 mps 701 mmHg 94%
    23:00 +21°C° 0.4 mm 1 mps 701 mmHg 95%

    26 July, Friday

    Time Temperature Precipitation Wind Pressure Humidity
    00:00 +21°C° 0.4 mm 1 mps 701 mmHg 96%
    01:00 +20°C° 0.2 mm 1 mps 700 mmHg 96%
    02:00 +20°C° 0.2 mm 1 mps 700 mmHg 96%
    03:00 +20°C° 0.2 mm 1 mps 700 mmHg 96%
    04:00 +20°C° 0.2 mm 1 mps 700 mmHg 96%
    05:00 +20°C° 0.2 mm 1 mps 700 mmHg 96%
    06:00 +20°C° 0.2 mm 1 mps 700 mmHg 96%
    07:00 +20°C° 0.2 mm 1 mps 700 mmHg 95%
    08:00 +20°C° 0.2 mm 1 mps 700 mmHg 95%
    09:00 +21°C° 0.2 mm 1 mps 700 mmHg 94%
    10:00 +21°C° 0.4 mm 1 mps 700 mmHg 93%
    11:00 +21°C° 0.4 mm 1 mps 700 mmHg 92%
    12:00 +21°C° 0.4 mm 1 mps 700 mmHg 91%
    13:00 +21°C° 0.2 mm 1 mps 699 mmHg 89%
    14:00 +22°C° 0.2 mm 1 mps 699 mmHg 87%
    15:00 +20°C° 0.2 mm 0 mps 699 mmHg 85%
    16:00 +23°C° 0.2 mm 1 mps 699 mmHg 84%
    17:00 +23°C° 0.2 mm 1 mps 699 mmHg 84%
    18:00 +23°C° 0.2 mm 1 mps 699 mmHg 83%
    19:00 +22°C° 0.1 mm 1 mps 699 mmHg 86%
    20:00 +21°C° 0.1 mm 1 mps 699 mmHg 88%
    21:00 +20°C° 0.1 mm 1 mps 699 mmHg 91%
    22:00 +19°C° 0 mm 1 mps 699 mmHg 90%
    23:00 +19°C° 0 mm 1 mps 699 mmHg 89%
    Show more